Home   Weather   Mackay   Past weeks

Flag for Australia Past Weather in Mackay, Queensland, Australia — Yesterday and Last 2 Weeks

Now
78 °F

Warm.


Feels Like: 80 °F
Forecast: 78 / 82 °F
Wind: 8 mph from South

Location: Mackay Mo

Current Time: Jan 23, 2017 at 8:30:33 am

Latest Report: Jan 23, 2017 at 7:00 am


Visibility: N/A

Pressure: 29.90 "Hg

Humidity: 99%

Dew Point: 78 °F

Location of MackayLocation

Past Weather in Mackay — Graph

°F

Mackay Temperature Yesterday

Maximum temperature yesterday: 87 °F (at 1:00 pm)
Minimum temperature yesterday: 74 °F (at 6:00 am)
Average temperature yesterday: 82 °F

High & Low Weather Summary for the Past Weeks

 TemperatureHumidityPressure
High91 °F (Jan 13, 1:00 pm)100% (Jan 14, 6:00 am)29.96 "Hg (Jan 14, 6:00 am)
Low71 °F (Jan 21, 6:00 am)51% (Jan 19, 3:00 pm)29.68 "Hg (Jan 15, 4:00 pm)
Average82 °F82%29.81 "Hg
* Reported Jan 8 7:00 am — Jan 23 7:00 am, Mackay, Weather by CustomWeather, © 2017

Note: Actual official high and low records may vary slightly from our data, if they occured in-between our weather recording intervals... More about our weather records

Advertising

Mackay Weather History for the Previous 24 Hours

Scroll right to see more
 ConditionsComfort  
Time TempWeatherWind HumidityBarometerVisibility
7:00 am
Mon, Jan 23
78 °FWarm.8 mph99%29.90 "HgN/A
6:00 am79 °FOvercast.6 mph90%29.87 "HgN/A
4:00 am81 °FWarm.10 mph83%29.82 "HgN/A
3:00 am80 °FOvercast.5 mph83%29.83 "HgN/A
1:00 am81 °FWarm.8 mph79%29.85 "HgN/A
12:00 am82 °FOvercast.10 mph78%29.88 "HgN/A
10:00 pm
Sun, Jan 22
82 °FWarm.10 mph73%29.89 "HgN/A
9:00 pm83 °FOvercast.10 mph69%29.88 "HgN/A
7:00 pm83 °FWarm.9 mph71%29.85 "HgN/A
6:00 pm84 °FWarm.8 mph69%29.84 "HgN/A
4:00 pm85 °FWarm.10 mph70%29.82 "HgN/A
3:00 pm87 °FOvercast.12 mph69%29.83 "HgN/A
1:00 pm87 °FWarm.9 mph71%29.85 "HgN/A
12:00 pm87 °FWarm.8 mph74%29.86 "HgN/A
10:00 am86 °FWarm.7 mph76%29.87 "HgN/A
9:00 am85 °FOvercast.3 mph78%29.87 "HgN/A
Weather by CustomWeather, © 2017

See weather overviewHow to use our weather pages